EHI
4 4 4 7 13 21 31 40 49 53 57 58 54 48 42 34 26 20 16 11 7 5 5 4 4 3 3 3 4 4 4 5 5 4 3 3 3 3 3 3 3 3 3
6 5 5 10 18 26 33 39 45 50 55 55 49 43 39 33 27 23 18 12 7 5 5 5 4 3 3 3 4 5 5 5 4 4 3 3 3 3 3 3 4 4 4
10 8 9 16 25 32 37 39 42 45 48 46 42 37 34 30 27 23 19 13 8 6 5 4 3 3 3 3 4 5 6 6 5 4 3 3 3 3 3 4 5 5 4
13 11 13 22 31 36 40 41 41 41 41 39 35 33 30 26 23 20 16 11 8 7 6 4 3 3 3 3 4 5 6 6 6 4 3 3 3 3 3 4 6 6 5
15 14 18 29 36 40 42 41 41 39 38 36 34 31 27 24 21 19 14 9 8 8 6 4 3 4 4 4 4 4 5 5 5 4 3 3 3 3 4 5 6 6 4
17 17 25 38 43 44 44 42 41 38 36 36 36 33 28 24 21 19 15 10 8 6 5 3 4 4 5 4 4 4 4 4 4 3 3 3 3 3 4 5 6 5 4
21 22 31 43 47 46 45 43 41 40 40 40 39 35 29 24 20 18 14 10 6 4 3 3 3 4 4 4 4 4 4 4 3 3 3 3 3 3 3 5 6 4 3
24 26 30 36 40 42 42 42 41 41 42 40 34 27 23 20 17 14 10 7 4 3 3 3 3 3 3 3 3 3 4 4 4 3 2 1 2 3 3 4 5 5 4
21 24 24 22 25 30 35 37 37 36 35 30 22 15 12 13 13 11 8 6 4 3 4 3 3 3 3 3 3 3 3 4 5 4 2 0 1 2 3 4 5 5 4
13 15 15 13 13 16 22 26 27 25 22 18 13 9 8 8 8 8 9 8 6 4 4 4 3 4 4 3 3 4 3 3 3 3 2 1 0 1 3 4 6 6 4
9 10 10 9 8 9 10 13 15 14 11 10 10 9 7 5 4 5 7 9 8 6 5 4 4 4 4 3 4 4 3 2 1 2 2 1 0 1 2 4 6 6 4
9 9 8 7 8 8 7 8 9 8 7 6 8 8 6 2 1 2 4 6 6 5 4 4 4 3 2 2 3 3 2 1 1 1 1 1 0 0 2 5 7 6 4
9 8 6 7 8 8 8 9 9 8 7 6 6 7 5 2 1 1 2 2 2 2 2 2 1 1 2 2 2 2 1 0 0 1 1 1 1 2 5 8 8 6 4
9 7 5 6 8 9 10 11 11 10 9 8 7 7 5 3 1 0 0 1 1 1 0 0 0 0 1 2 2 1 1 0 0 0 1 3 3 4 6 8 7 5 4
7 5 3 4 7 9 9 10 10 9 8 8 7 6 4 3 1 1 0 1 2 2 1 0 0 0 0 1 1 1 1 0 0 0 1 2 3 3 4 6 7 6 4
4 3 1 2 5 6 6 7 8 7 5 4 4 4 3 3 3 2 1 1 3 2 1 0 0 0 0 0 0 1 1 0 0 0 1 1 1 1 2 4 5 6 6
1 1 0 1 2 3 3 4 4 3 2 1 1 2 2 2 3 3 3 3 3 2 1 0 0 0 0 0 0 0 0 0 0 0 0 0 0 1 2 2 3 5 5
1 0 0 0 1 1 1 1 1 1 1 0 0 0 1 1 2 3 3 2 2 2 1 0 0 0 0 0 0 0 0 0 0 0 0 0 0 0 1 2 2 2 2
2 1 1 1 0 0 0 0 0 0 0 0 0 1 1 1 2 2 1 1 1 1 0 0 0 0 0 0 0 0 0 0 0 0 0 0 0 0 0 1 1 1 0
3 3 2 2 1 0 0 0 0 0 0 0 0 1 2 3 2 1 0 0 0 0 0 0 0 0 0 0 0 0 0 0 0 0 0 0 0 0 0 0 0 0 0
5 4 3 2 1 0 0 0 0 0 0 0 0 1 2 2 2 1 0 0 0 0 0 0 0 0 0 0 0 0 0 0 0 0 0 0 0 0 0 0 0 0 0
6 5 3 1 0 0 0 0 0 0 0 0 0 0 1 1 1 0 0 0 0 0 0 0 0 0 0 0 0 0 0 0 0 0 0 0 0 0 0 0 0 0 0
6 5 3 1 1 2 2 1 1 0 0 0 0 0 0 0 0 0 0 0 0 0 0 0 0 0 0 0 0 0 0 0 0 0 0 0 0 0 0 0 0 0 0
5 4 2 1 2 3 3 2 1 0 0 0 0 0 0 0 0 0 0 0 0 0 0 0 0 0 0 0 0 0 0 0 0 0 0 0 0 0 0 0 0 0 0
5 4 2 1 1 3 3 2 1 0 0 0 0 0 0 0 0 0 0 0 0 0 0 0 0 0 0 0 0 0 0 0 0 0 0 0 0 0 0 0 0 0 0
4 3 1 0 1 2 3 1 0 0 0 0 0 0 0 0 0 0 0 0 0 0 0 0 0 0 0 0 0 0 0 0 0 0 0 0 0 0 0 0 0 0 0
Wind_Speed
6 7 12 13 14 15 16 16 16 17 17 16 16 16 15 14 13 13 12 11 11 10 10 9 9 9 9 9 10 10 9 9 9 10 10 10 9 9 9 9 9 7 10
9 9 13 14 14 15 15 16 16 16 16 15 15 15 14 13 12 12 11 11 10 10 10 9 9 9 9 9 9 9 9 8 8 8 9 8 9 9 9 9 8 6 10
10 9 11 14 14 15 15 15 15 15 15 14 14 14 13 12 12 11 11 10 10 9 9 9 9 8 8 8 8 8 7 7 6 7 7 4 5 8 9 9 9 9 9
10 8 10 14 14 15 15 14 14 14 14 13 13 13 12 11 11 10 10 9 9 8 8 8 8 7 7 7 6 6 6 6 6 6 3 3 3 7 8 9 9 9 9
9 7 9 15 14 14 14 14 14 13 13 12 12 11 11 10 9 8 8 8 8 7 7 6 6 6 6 5 5 5 4 4 5 4 3 2 2 6 8 9 9 9 9
8 6 9 14 14 13 13 13 13 12 11 11 10 10 9 9 8 7 7 7 6 6 6 5 5 4 4 4 3 3 3 3 3 2 2 2 3 6 8 9 10 10 9
8 6 7 12 13 13 13 12 12 11 10 10 9 8 7 6 6 6 5 5 5 4 4 4 3 3 2 2 2 1 1 2 3 2 3 3 5 8 9 9 10 10 10
9 7 7 11 12 11 11 11 11 10 9 8 7 7 6 5 4 4 4 4 3 3 3 2 2 1 1 0 0 0 0 0 2 2 3 3 6 8 9 9 9 9 10
7 6 5 5 7 9 10 10 9 8 8 7 6 5 5 4 3 3 2 2 2 2 2 2 2 1 1 1 1 1 1 1 1 2 3 2 6 8 9 9 9 9 9
6 5 5 4 4 4 4 8 8 7 6 6 5 4 4 3 2 1 1 1 2 2 2 2 2 2 2 2 2 2 2 1 1 1 1 3 6 8 8 9 10 9 9
6 4 4 4 4 4 4 5 5 5 5 4 3 3 3 2 2 1 1 1 1 1 1 2 3 2 2 2 2 2 2 0 1 1 1 4 6 8 8 8 9 9 9
6 4 3 4 4 4 3 3 2 2 2 2 2 2 2 2 1 1 3 2 2 2 2 2 2 2 1 1 2 2 1 1 1 1 2 4 5 6 7 8 8 8 9
5 5 3 3 3 3 3 3 2 1 2 2 2 2 2 2 1 2 1 2 2 3 2 2 2 1 1 1 1 0 1 1 1 1 1 3 4 6 6 6 7 8 8
5 4 3 3 3 3 3 3 2 2 1 1 1 2 1 1 1 1 1 1 1 1 2 1 1 1 1 1 1 1 1 1 1 1 2 2 2 3 4 5 7 8 9
5 3 3 4 4 3 3 2 3 2 1 1 1 1 1 1 1 1 1 1 1 1 1 1 1 1 1 1 1 1 1 1 1 1 1 3 3 2 3 4 5 7 8
4 3 3 4 3 4 3 3 2 2 1 1 1 1 1 1 0 1 1 1 1 1 1 1 1 1 1 1 2 2 2 1 1 1 1 3 4 3 2 3 4 4 5
3 3 3 4 4 4 3 3 2 2 2 2 1 2 2 1 1 1 1 1 2 2 2 1 1 1 1 1 1 2 1 2 2 2 2 1 2 3 3 3 2 1 2
4 4 3 4 5 4 3 3 3 2 2 2 2 2 3 2 1 1 1 1 2 1 1 1 1 1 1 1 1 1 1 2 2 2 2 2 2 2 4 5 4 3 2
5 4 4 4 4 4 4 4 4 3 3 2 2 2 3 3 2 2 1 1 2 1 1 1 1 0 1 1 1 1 2 2 2 3 3 3 2 2 2 4 5 6 4
5 4 4 4 4 4 4 3 3 3 3 3 3 3 3 3 3 2 1 2 2 1 2 1 1 1 1 1 1 2 2 2 3 3 3 2 3 3 3 3 3 4 5
4 4 4 4 3 3 2 2 2 2 2 2 3 4 4 4 3 2 2 2 2 2 1 1 1 1 1 1 1 1 2 3 3 3 3 3 4 4 4 4 3 3 3
4 4 4 4 3 2 2 1 1 2 1 1 2 4 4 4 4 3 3 2 2 2 2 2 1 1 1 1 1 0 0 1 2 3 3 3 3 3 4 5 4 4 3
3 3 3 3 3 3 3 3 3 2 2 2 3 3 4 4 4 4 4 3 2 2 1 1 1 1 0 1 1 0 1 1 0 1 2 3 3 3 3 4 5 5 5
3 3 4 4 4 4 3 3 3 2 1 1 1 2 3 4 4 5 4 3 3 2 1 1 1 1 1 0 1 1 0 1 1 0 1 2 3 4 3 3 4 4 5
4 4 4 5 4 4 3 3 3 3 1 1 1 3 3 4 4 5 4 4 3 2 2 2 2 1 0 0 0 0 0 0 1 1 1 0 1 2 2 2 2 3 4
4 4 4 4 4 3 3 3 3 3 2 2 2 3 3 3 3 5 4 3 3 3 3 2 2 2 1 0 0 0 1 1 1 1 1 1 0 1 1 1 2 2 3
Wind_Direction
146 148 144 137 128 120 115 112 109 108 107 108 109 110 111 113 115 117 117 115 113 110 107 104 102 100 102 104 105 109 113 118 120 121 124 125 126 124 124 124 120 121 124
141 146 145 139 131 124 119 117 114 113 112 112 112 112 113 114 114 115 114 112 110 109 108 105 104 103 103 105 108 113 117 120 123 128 128 129 134 136 136 132 130 131 132
134 141 142 139 133 127 123 121 119 118 117 116 116 116 116 116 116 114 113 112 111 110 109 107 106 105 105 107 111 117 121 122 121 123 116 108 133 145 147 143 140 137 137
133 134 140 141 136 130 127 125 125 123 122 121 121 120 119 119 118 117 116 115 113 112 112 110 109 108 109 112 116 118 119 121 123 120 109 125 147 152 153 151 149 147 146
128 130 142 140 136 133 131 130 129 128 127 126 124 123 122 122 120 119 119 118 116 114 113 113 111 110 110 111 112 114 118 128 134 127 139 144 162 167 163 162 160 157 155
126 128 140 138 137 135 135 134 133 131 130 129 127 126 125 125 125 124 124 122 122 121 121 119 116 112 113 112 111 110 110 133 126 143 170 179 185 188 180 174 169 166 165
126 124 134 136 136 137 136 135 134 133 131 129 129 128 127 127 128 129 128 128 128 128 131 130 128 125 119 119 115 97 90 131 133 167 187 189 194 197 190 183 179 176 175
128 122 128 136 136 137 136 135 135 133 131 131 130 127 125 125 129 133 135 139 141 145 146 149 151 151 138 162 263 292 322 185 150 184 200 196 203 202 197 192 188 186 186
117 115 114 126 133 137 136 137 136 134 133 132 131 130 125 121 129 141 146 163 176 177 182 193 202 218 253 268 276 284 285 270 142 187 205 201 220 214 208 199 196 194 191
109 109 107 105 106 110 124 136 134 131 128 127 129 131 125 117 114 120 116 195 216 224 228 241 244 253 264 269 274 290 295 319 178 203 205 216 225 220 217 209 204 199 195
118 106 106 106 103 106 112 123 124 126 122 120 117 116 100 61 37 18 356 341 292 263 261 273 277 286 292 295 296 305 312 322 247 226 218 229 228 226 225 216 208 204 202
141 131 107 111 113 116 123 107 95 102 95 88 78 78 75 63 22 25 7 355 344 330 307 298 310 324 340 339 325 339 346 301 276 250 231 232 233 232 229 220 211 209 210
144 136 126 121 116 118 108 105 91 81 81 76 70 67 65 58 23 15 16 359 352 344 345 343 354 359 356 321 304 319 311 294 290 282 274 246 240 238 239 227 216 215 215
129 130 125 112 101 100 98 103 100 94 91 81 58 62 70 53 21 7 13 359 356 349 335 337 342 347 3 342 308 313 318 294 289 293 296 292 273 259 254 240 223 219 217
124 125 119 107 103 101 96 96 97 89 78 71 63 55 69 58 2 360 349 352 346 349 341 335 349 6 18 344 342 340 327 303 293 287 307 316 319 300 279 260 240 228 224
133 129 108 102 100 97 94 95 98 88 71 58 50 58 75 78 29 359 339 336 332 331 322 319 15 35 8 9 1 346 329 321 323 330 332 325 324 320 309 291 273 247 227
130 111 104 108 94 95 95 92 86 76 75 67 47 43 51 57 37 357 339 334 322 335 340 342 32 67 25 19 11 349 343 343 356 360 5 352 339 338 341 349 345 321 228
99 86 79 95 92 88 85 84 76 66 66 50 30 30 29 26 26 24 8 333 330 354 345 316 24 64 44 21 9 1 3 4 12 15 25 24 21 3 5 17 21 22 26
96 94 84 81 90 87 79 72 71 64 56 44 32 22 17 15 19 33 21 345 347 15 7 348 20 26 80 40 23 42 30 15 13 21 31 27 36 33 25 23 26 23 23
98 95 90 85 81 89 86 78 70 58 41 35 29 18 15 13 18 25 27 9 7 23 23 14 34 29 85 56 58 52 41 28 33 32 27 32 41 41 38 39 31 19 24
89 85 80 84 73 81 82 83 77 59 28 24 22 19 18 17 16 26 17 19 16 17 7 23 45 49 43 56 68 53 45 48 51 40 39 47 47 43 43 43 41 36 23
105 96 85 84 80 76 82 88 95 96 58 35 11 15 16 15 16 27 24 16 12 21 28 28 44 43 16 25 49 88 12 22 38 33 39 48 43 41 41 39 39 37 29
103 95 86 73 69 67 75 86 77 57 39 23 12 4 0 14 20 19 18 16 18 32 28 13 29 70 74 335 9 135 172 216 99 25 43 49 46 46 36 34 36 31 29
109 87 80 74 70 66 73 92 100 97 83 10 348 353 355 16 21 21 20 20 19 22 24 7 31 32 103 321 332 333 217 169 174 147 23 45 52 48 36 30 27 26 26
107 97 90 84 72 66 69 86 96 94 96 60 28 26 15 11 19 20 21 23 18 15 17 17 12 23 48 180 255 303 345 54 135 168 196 94 43 41 40 32 23 18 19
105 101 95 93 78 72 80 82 93 101 93 73 40 27 14 4 3 9 18 24 18 11 9 8 5 7 354 341 300 245 211 188 184 175 185 193 174 31 26 31 31 21 17